Temperature
26 28 28 29 29 29 29 29 29 30 30 30 30 29 29 27 26 25 23 22 21 20 19 18 17 17 17 17 17 17 17 17 17 17 17 17 17 17 17 17 17 17 16 16
27 27 29 29 29 28 28 28 29 30 30 29 29 29 29 27 26 25 24 22 21 20 19 18 17 17 17 17 17 17 17 17 17 17 17 17 17 17 17 17 17 16 16 16
27 29 29 28 28 28 28 29 29 29 29 29 29 29 28 27 26 24 23 23 22 20 19 18 17 17 17 16 17 17 17 17 17 17 17 17 17 17 17 16 16 16 16 16
28 29 28 28 28 28 28 29 29 29 29 29 29 28 29 28 27 26 25 23 22 21 20 18 17 17 17 17 16 17 17 17 17 17 17 17 17 17 17 16 16 16 16 16
28 28 28 28 28 29 29 29 29 29 28 29 29 28 30 28 28 27 26 24 23 21 20 19 18 17 17 17 16 16 16 17 17 17 17 17 17 17 17 16 16 16 16 16
29 29 29 29 29 29 29 28 28 28 29 28 29 28 29 30 28 28 27 24 22 21 20 19 18 17 17 17 16 16 16 17 17 17 17 17 17 17 17 16 16 16 16 16
27 28 29 29 28 29 28 28 27 27 28 28 28 28 29 29 28 28 27 25 22 21 20 19 18 17 17 16 16 16 16 17 17 17 17 17 17 17 16 16 16 16 16 16
27 28 29 29 28 29 28 28 27 27 27 28 28 28 29 29 28 27 26 24 23 21 21 19 18 17 17 16 16 16 16 16 17 17 17 17 17 16 16 16 16 16 16 16
28 28 29 29 29 29 28 29 30 29 28 28 29 29 30 28 28 27 26 24 23 22 21 20 19 18 17 17 16 17 17 17 17 17 17 17 17 16 16 16 16 16 16 16
28 27 29 29 29 29 29 29 29 28 27 27 28 28 29 28 28 27 26 25 24 22 21 20 19 18 18 17 17 17 16 17 17 17 16 16 17 16 16 16 16 16 16 16
28 27 28 28 28 28 28 28 28 29 28 27 27 28 30 29 28 28 27 25 24 23 22 21 19 19 18 17 17 17 17 16 16 16 17 16 16 16 16 16 16 16 16 16
27 27 28 28 29 29 29 29 28 27 27 27 27 28 29 29 29 28 27 25 24 23 22 21 20 19 18 18 17 17 17 17 17 17 17 16 16 16 16 16 16 16 16 16
26 26 26 27 27 27 28 28 28 28 28 27 27 28 28 28 27 27 26 24 23 22 21 21 20 19 19 18 18 17 17 17 17 17 16 16 16 16 16 16 16 16 16 16
25 25 26 27 27 28 27 28 28 27 28 28 28 29 28 28 27 26 25 23 22 21 21 20 20 19 19 18 18 17 17 17 17 17 16 16 16 16 16 16 16 16 16 16
25 25 26 26 27 27 27 27 27 27 27 28 28 29 29 29 27 26 24 23 22 21 20 20 19 18 18 18 17 17 17 17 17 17 16 16 16 16 16 16 16 16 16 16
24 24 25 25 26 26 26 27 27 27 27 27 28 28 29 28 26 25 24 23 22 21 20 19 19 18 18 18 17 17 17 17 17 16 16 16 16 16 16 16 16 16 16 16
24 23 23 24 26 25 25 26 27 27 28 27 27 28 28 27 26 24 23 23 22 21 20 19 18 18 17 17 17 17 17 17 16 16 16 16 16 16 16 16 16 15 15 15
22 22 22 23 23 22 26 27 27 26 27 28 28 28 27 26 24 22 22 22 21 20 19 19 18 17 17 17 17 16 16 16 16 16 16 16 16 16 16 15 15 15 15 15
21 21 21 22 23 23 25 26 25 25 25 27 26 26 25 23 22 21 20 20 19 19 18 17 17 17 17 17 16 16 16 16 15 15 15 15 15 15 15 15 15 14 14 14
20 20 21 21 21 22 24 25 24 24 24 25 24 24 23 22 24 22 18 17 17 17 16 16 16 16 16 15 15 15 15 15 15 15 14 14 14 14 14 14 14 14 14 13
20 19 20 20 20 22 23 23 23 22 23 21 22 22 22 22 22 18 16 15 15 15 15 15 15 15 15 15 15 15 14 14 14 14 14 14 13 13 13 13 13 13 12 12
20 20 19 20 20 21 22 22 21 21 19 19 20 20 19 18 16 15 14 14 14 14 14 14 14 14 14 14 14 14 13 13 13 13 13 13 12 12 12 12 12 12 11 11
20 20 20 20 20 20 19 19 19 18 18 18 19 18 17 16 15 14 13 13 13 13 13 13 13 13 12 13 13 13 12 12 12 12 12 12 12 11 11 11 11 11 10 10
20 19 18 18 19 19 19 18 18 18 17 18 17 17 16 15 14 13 12 12 12 12 12 12 12 12 12 12 12 12 12 12 12 12 11 11 11 10 10 10 10 10 10 10
18 18 17 17 18 18 18 17 17 16 16 16 15 15 15 14 13 12 12 11 11 11 11 11 11 11 11 11 11 11 11 11 11 11 10 10 10 10 9 9 9 9 9 8
17 17 16 16 16 16 16 15 15 15 15 14 14 13 13 13 12 11 11 10 10 10 10 11 10 10 10 10 10 10 10 10 10 10 10 10 9 9 9 9 8 8 8 7
Wind_Speed
11 13 15 13 10 9 8 9 10 8 6 8 8 8 4 3 5 6 7 8 9 9 9 9 10 10 11 12 13 14 14 13 11 9 9 8 7 6 5 5 6 6 6 6
11 17 16 11 8 9 11 12 11 7 4 7 9 9 4 4 5 6 7 9 9 9 9 9 10 10 11 12 13 13 14 13 13 9 8 7 7 6 5 5 6 6 6 7
19 8 8 11 12 12 13 12 10 10 9 8 9 9 4 4 5 6 7 8 9 10 11 11 11 11 12 12 13 12 13 13 12 11 8 8 6 5 6 6 6 6 7 7
16 14 9 11 13 13 13 10 9 10 11 8 5 10 4 4 6 8 8 9 10 10 10 11 11 11 12 12 12 12 13 13 13 12 12 13 10 8 8 7 6 7 7 7
12 11 13 15 14 12 11 6 8 9 10 12 8 9 5 3 5 7 9 9 9 10 11 11 11 11 11 12 12 12 13 12 13 13 13 12 10 8 7 7 8 7 7 7
13 8 9 11 10 10 7 7 8 10 10 11 7 8 7 2 2 3 8 9 10 10 11 11 10 9 9 11 11 12 12 12 12 13 13 12 11 9 9 9 9 8 7 7
15 16 15 12 12 11 11 11 10 10 9 8 2 6 5 2 1 2 6 10 11 11 11 11 11 11 10 11 12 12 13 12 13 14 13 13 12 11 11 11 10 9 7 7
12 11 13 14 17 13 14 15 12 10 8 6 4 5 3 1 2 3 5 9 11 12 11 11 12 11 11 12 12 12 12 12 13 13 13 12 12 10 10 11 9 9 7 7
8 7 7 8 11 13 12 14 14 12 12 11 7 5 4 3 5 6 7 9 11 12 12 12 12 12 12 13 12 12 12 12 13 13 13 13 12 11 10 10 9 8 7 7
8 7 8 7 7 10 11 9 8 11 10 10 8 7 4 3 5 7 9 9 10 12 12 12 13 13 12 12 12 12 12 12 12 13 12 11 12 11 10 10 10 8 8 7
11 10 8 9 10 11 10 10 10 10 9 10 10 5 2 2 4 7 8 10 11 13 13 13 13 13 13 13 13 12 12 12 12 12 12 11 11 11 10 9 9 8 8 8
8 8 11 11 7 6 11 13 12 11 11 10 11 7 2 1 3 6 8 10 11 12 13 13 13 13 13 14 13 13 12 12 12 12 11 11 10 10 10 10 9 8 8 8
4 6 10 11 9 9 11 13 13 12 11 12 13 7 5 4 5 7 8 11 12 12 13 13 13 13 13 13 13 13 13 12 12 12 12 11 11 11 10 9 8 8 8 7
4 7 11 13 6 4 9 11 12 13 14 14 15 12 6 5 6 8 10 12 13 13 13 13 13 12 12 12 12 13 13 12 13 13 12 11 11 10 9 8 8 7 7 7
4 9 11 12 10 10 11 12 13 15 16 16 15 13 9 5 7 9 11 13 13 13 13 13 13 12 11 11 11 11 12 12 12 12 12 11 11 10 9 8 8 7 6 6
3 8 10 13 13 13 15 16 16 17 17 18 17 16 9 4 6 9 12 14 14 14 14 13 13 12 12 11 11 11 11 11 12 12 11 11 10 10 9 8 7 6 6 5
6 7 10 15 14 14 18 19 19 19 19 18 18 15 7 5 7 9 11 13 13 13 13 13 13 12 11 11 11 11 10 10 11 10 10 10 10 9 8 8 7 6 6 5
8 9 8 12 12 17 13 7 11 16 19 18 16 12 7 5 5 5 7 10 12 12 12 12 11 11 11 11 11 10 11 11 11 10 10 9 9 9 9 8 7 6 5 5
8 9 9 11 15 16 14 9 9 12 15 13 13 11 6 4 5 6 7 7 9 10 10 10 10 11 10 11 12 12 11 11 11 10 10 9 9 9 9 9 8 7 7 7
6 9 10 11 13 13 7 3 5 9 14 5 6 6 6 9 8 6 9 9 10 10 10 11 11 12 11 11 12 13 12 12 11 11 10 10 9 10 10 10 9 9 9 9
7 8 12 15 14 11 5 5 4 9 4 6 5 3 6 8 2 9 12 11 11 12 13 13 13 13 12 13 13 14 14 13 12 12 12 12 11 11 11 11 10 10 9 10
8 8 9 10 12 10 3 4 5 6 8 7 5 3 2 5 10 13 14 13 13 14 14 14 14 14 13 14 15 16 15 14 14 14 14 13 12 11 11 11 10 9 9 9
7 7 6 7 7 4 4 6 8 9 9 8 5 1 6 10 12 14 15 14 14 14 14 15 16 16 14 13 16 17 15 14 14 15 14 13 13 11 10 10 10 8 6 6
7 6 8 9 10 10 11 10 9 8 8 5 2 5 9 12 15 16 15 15 15 15 15 15 17 17 16 14 15 15 14 14 15 15 13 12 12 11 10 8 7 7 6 5
7 6 8 11 11 10 9 8 7 5 2 1 5 8 10 15 17 17 15 15 15 14 14 15 16 17 16 15 14 14 13 13 14 14 12 11 11 11 10 10 9 8 9 7
6 7 8 8 7 7 7 6 4 1 2 6 9 11 13 15 18 18 16 15 15 15 15 15 16 16 15 15 14 12 11 12 12 11 10 8 8 8 8 9 10 15 12 13
Wind_Direction
200 221 226 227 235 266 276 276 281 293 315 304 298 303 293 221 214 208 198 191 191 191 183 178 178 180 180 175 175 179 176 174 170 170 170 170 171 170 171 171 165 169 172 175
206 228 234 240 241 249 256 265 273 281 306 298 298 294 268 219 221 220 207 198 194 185 179 179 181 181 183 177 179 180 180 177 177 174 170 171 164 170 169 167 162 172 176 182
219 225 222 227 230 239 248 257 276 294 301 262 285 278 220 198 208 209 210 203 195 190 188 184 184 186 185 183 181 181 179 177 178 167 160 156 155 164 172 170 168 173 179 185
231 233 226 229 231 238 247 252 270 281 285 289 298 303 281 197 212 210 205 197 194 189 186 183 184 187 189 186 182 180 178 176 174 170 173 175 178 178 181 177 168 171 182 185
220 224 225 231 235 238 252 267 266 273 277 281 269 286 307 191 234 213 200 193 191 187 184 182 183 183 183 181 180 178 176 177 177 179 180 181 183 179 171 170 165 177 177 182
238 223 233 238 236 236 238 242 247 252 260 264 278 289 300 316 280 212 188 185 184 181 180 180 178 174 174 175 176 174 174 177 177 180 183 186 182 175 171 176 174 183 178 180
231 233 230 234 236 221 222 236 241 240 239 257 243 275 294 349 255 228 190 182 179 178 177 176 174 173 175 177 177 176 176 179 180 182 185 186 183 180 183 184 184 186 181 179
217 225 215 218 227 230 221 233 245 259 266 275 220 268 310 89 180 184 175 171 174 177 177 175 174 173 173 174 175 176 178 180 181 182 183 184 184 188 189 189 186 189 187 180
222 217 178 207 219 229 224 232 246 257 266 276 272 270 260 192 193 186 171 169 175 176 174 173 173 173 171 172 175 178 177 178 179 180 180 183 187 192 188 182 191 189 185 178
238 238 201 189 205 218 241 238 231 243 256 264 265 264 281 221 206 186 180 176 174 173 173 172 173 173 173 172 175 175 177 179 178 179 182 182 184 188 186 188 189 186 184 180
233 239 219 201 216 209 203 218 232 245 257 267 275 281 25 277 217 194 181 174 171 171 171 170 170 171 171 171 172 177 180 179 179 180 181 180 181 181 182 186 188 187 188 185
219 239 243 227 223 257 234 231 227 241 247 252 272 280 98 192 195 186 173 165 165 166 166 166 167 169 171 172 173 176 178 180 179 177 174 175 175 177 182 187 189 190 192 195
197 227 237 223 212 211 228 231 235 243 255 254 259 264 138 157 180 180 170 163 162 164 164 165 166 169 173 174 176 178 180 179 175 172 173 174 175 178 183 187 188 193 194 199
247 242 252 258 275 224 224 227 229 236 243 250 253 268 244 207 195 182 171 166 164 165 165 167 167 170 173 174 176 177 178 176 172 171 172 174 178 178 179 181 185 190 193 198
262 249 253 267 278 271 261 252 240 239 251 261 269 271 272 240 211 189 175 169 167 166 168 168 168 169 171 171 172 174 176 173 172 171 171 174 173 171 174 175 180 182 187 194
259 265 263 260 260 262 261 256 251 248 251 256 264 267 272 248 199 185 181 177 174 172 170 168 168 168 170 170 169 170 172 171 170 171 171 167 164 165 167 168 171 173 178 184
245 252 260 260 259 262 254 250 251 250 249 251 256 261 242 223 201 191 184 182 179 174 170 167 166 165 164 164 163 163 162 159 159 160 158 156 158 157 158 161 161 160 156 147
249 255 255 261 258 252 258 270 266 263 260 257 259 264 251 235 197 183 183 181 175 168 164 161 158 154 154 153 152 150 149 148 146 145 146 147 147 147 144 140 137 132 127 124
232 237 248 253 252 256 259 260 265 266 264 262 260 254 227 170 163 172 166 167 162 156 148 144 144 144 144 144 141 138 138 138 136 137 138 138 138 135 130 126 122 118 113 106
206 222 240 244 252 256 263 303 299 274 259 284 281 251 210 191 217 179 144 140 134 132 131 130 130 129 128 132 134 132 131 129 127 126 123 123 123 122 119 116 113 109 107 104
210 219 233 245 249 255 288 324 281 248 277 5 336 278 223 218 256 126 130 126 123 121 121 121 119 117 118 122 123 120 115 113 113 111 109 107 106 108 108 105 104 105 104 100
244 240 233 240 245 248 355 301 271 314 338 333 325 296 198 119 115 123 123 122 121 119 117 114 110 106 108 113 112 107 104 105 106 104 101 100 100 102 103 102 99 99 104 106
240 253 262 250 258 319 334 305 304 306 304 307 302 180 140 135 132 126 123 120 117 114 111 110 108 103 100 103 107 107 108 109 107 104 101 100 98 96 99 102 103 101 99 97
246 256 258 261 264 279 288 290 289 289 289 289 218 158 145 139 133 127 121 117 114 111 109 109 108 104 99 97 99 103 108 110 108 105 103 103 101 98 91 88 89 87 84 86
271 259 256 259 271 283 285 296 298 297 298 119 131 139 140 136 131 124 118 114 111 108 106 105 104 103 102 100 98 101 106 108 107 106 106 104 100 97 90 78 61 71 63 58
260 260 263 272 291 291 300 319 323 334 116 115 115 115 119 124 124 119 113 110 108 107 105 104 104 103 103 101 99 99 103 106 108 108 107 107 107 106 106 103 89 60 69 72
Height
1497 1496 1492 1487 1486 1487 1488 1489 1487 1481 1477 1478 1476 1475 1475 1479 1482 1484 1486 1489 1492 1494 1497 1499 1500 1502 1504 1507 1511 1514 1518 1522 1526 1531 1535 1538 1542 1545 1548 1550 1552 1554 1556 1558
1494 1491 1484 1484 1486 1489 1489 1489 1483 1478 1476 1477 1475 1473 1472 1477 1479 1482 1484 1487 1490 1493 1495 1497 1499 1501 1503 1505 1509 1512 1516 1520 1524 1529 1533 1537 1541 1544 1546 1549 1551 1553 1555 1557
1486 1481 1481 1484 1487 1489 1486 1485 1482 1481 1476 1473 1475 1471 1470 1473 1478 1481 1483 1485 1488 1491 1493 1495 1497 1499 1501 1504 1507 1510 1514 1519 1523 1527 1531 1535 1539 1542 1545 1547 1549 1552 1554 1556
1481 1477 1482 1484 1484 1484 1485 1477 1479 1480 1480 1474 1476 1481 1467 1467 1472 1476 1479 1482 1485 1489 1491 1494 1496 1498 1500 1502 1505 1508 1512 1516 1520 1525 1529 1533 1536 1539 1543 1546 1548 1550 1553 1554
1477 1476 1479 1482 1479 1478 1477 1475 1478 1478 1478 1478 1472 1477 1466 1464 1468 1469 1474 1478 1482 1486 1489 1492 1494 1495 1498 1500 1503 1506 1510 1514 1518 1522 1527 1531 1535 1538 1542 1544 1546 1549 1551 1553
1471 1473 1474 1473 1472 1474 1475 1478 1478 1476 1474 1484 1473 1478 1471 1458 1462 1464 1470 1476 1480 1483 1487 1490 1492 1494 1496 1499 1502 1505 1508 1512 1516 1520 1524 1529 1533 1536 1539 1542 1545 1548 1550 1552
1474 1470 1470 1471 1473 1473 1475 1482 1487 1488 1484 1480 1469 1475 1467 1458 1460 1463 1467 1473 1478 1481 1485 1487 1490 1492 1495 1497 1500 1503 1506 1510 1514 1518 1522 1526 1531 1534 1538 1541 1544 1547 1550 1551
1473 1471 1462 1464 1468 1468 1470 1473 1486 1492 1486 1473 1468 1471 1459 1457 1461 1464 1467 1471 1475 1479 1482 1485 1488 1491 1493 1496 1498 1501 1504 1508 1512 1516 1520 1525 1529 1533 1537 1540 1543 1546 1549 1551
1463 1465 1458 1460 1460 1463 1467 1467 1460 1470 1473 1478 1467 1461 1454 1456 1459 1462 1466 1470 1473 1476 1480 1484 1487 1490 1493 1495 1497 1500 1503 1507 1510 1514 1518 1523 1527 1531 1535 1538 1541 1545 1547 1549
1456 1465 1457 1458 1460 1461 1459 1458 1465 1471 1484 1485 1472 1464 1458 1455 1456 1459 1463 1467 1471 1475 1479 1482 1486 1489 1492 1494 1497 1500 1503 1506 1510 1514 1517 1521 1525 1529 1533 1536 1539 1543 1545 1547
1456 1464 1458 1458 1460 1458 1463 1464 1463 1462 1464 1477 1479 1466 1446 1450 1452 1455 1460 1465 1469 1473 1477 1481 1484 1488 1491 1494 1497 1499 1503 1506 1509 1512 1516 1520 1523 1527 1530 1534 1538 1541 1543 1546
1457 1458 1458 1453 1449 1451 1452 1454 1458 1469 1469 1466 1469 1462 1444 1448 1450 1454 1458 1463 1467 1471 1475 1480 1483 1487 1490 1493 1496 1499 1502 1505 1508 1511 1514 1518 1521 1525 1529 1533 1536 1539 1541 1544
1459 1462 1466 1460 1458 1455 1454 1451 1451 1454 1459 1462 1466 1458 1445 1448 1451 1454 1458 1463 1467 1471 1475 1479 1482 1486 1489 1492 1495 1498 1501 1504 1507 1510 1513 1516 1519 1523 1526 1530 1534 1537 1539 1541
1461 1459 1460 1460 1452 1448 1452 1451 1451 1454 1456 1456 1454 1449 1444 1446 1449 1453 1458 1462 1466 1470 1473 1477 1481 1484 1487 1491 1494 1497 1500 1503 1505 1508 1512 1515 1518 1521 1524 1528 1531 1534 1537 1539
1460 1458 1454 1451 1448 1448 1449 1449 1450 1453 1450 1451 1445 1442 1439 1441 1446 1451 1456 1460 1464 1468 1472 1475 1479 1482 1485 1489 1492 1495 1498 1501 1504 1507 1510 1513 1517 1520 1523 1526 1529 1532 1534 1537
1460 1460 1457 1456 1450 1449 1451 1448 1447 1447 1446 1445 1443 1441 1436 1442 1446 1451 1455 1458 1462 1466 1469 1473 1476 1480 1483 1486 1490 1493 1496 1499 1502 1505 1509 1512 1515 1518 1521 1524 1527 1529 1531 1533
1458 1462 1463 1457 1448 1451 1454 1444 1442 1441 1438 1440 1441 1436 1436 1441 1445 1449 1452 1456 1460 1463 1467 1471 1474 1477 1481 1484 1487 1491 1494 1497 1501 1504 1507 1510 1513 1516 1519 1522 1524 1527 1529 1530
1462 1463 1461 1458 1457 1465 1443 1433 1435 1437 1434 1433 1433 1435 1438 1442 1446 1450 1453 1455 1459 1462 1466 1469 1473 1476 1479 1483 1486 1489 1493 1496 1499 1502 1506 1509 1512 1515 1517 1520 1522 1524 1526 1528
1460 1463 1462 1458 1457 1450 1440 1436 1438 1439 1436 1432 1433 1435 1440 1445 1448 1450 1453 1456 1459 1462 1465 1468 1471 1475 1478 1482 1485 1488 1492 1495 1498 1502 1505 1508 1511 1514 1516 1518 1520 1522 1524 1526
1459 1461 1462 1458 1462 1458 1441 1436 1439 1441 1439 1435 1436 1437 1440 1444 1443 1446 1453 1456 1459 1461 1464 1467 1471 1474 1477 1481 1484 1488 1491 1495 1498 1501 1504 1508 1510 1513 1515 1517 1519 1521 1523 1524
1458 1460 1460 1457 1457 1446 1438 1439 1441 1447 1440 1440 1440 1440 1441 1442 1442 1448 1452 1456 1459 1462 1465 1468 1471 1475 1478 1481 1485 1488 1492 1495 1498 1501 1505 1507 1510 1513 1515 1517 1519 1521 1523 1524
1453 1454 1455 1454 1456 1449 1440 1441 1442 1443 1443 1442 1442 1442 1443 1445 1448 1450 1453 1457 1460 1463 1467 1469 1472 1476 1480 1483 1486 1489 1492 1496 1500 1503 1506 1508 1511 1514 1516 1518 1519 1521 1523 1524
1450 1449 1448 1448 1446 1443 1444 1445 1446 1446 1444 1443 1442 1443 1444 1447 1450 1453 1456 1459 1463 1466 1469 1472 1475 1478 1483 1486 1489 1491 1495 1499 1502 1505 1508 1510 1513 1515 1517 1519 1521 1522 1524 1525
1447 1449 1449 1448 1443 1443 1443 1443 1443 1443 1443 1442 1442 1443 1445 1448 1451 1455 1458 1462 1465 1469 1472 1475 1478 1481 1485 1490 1492 1495 1499 1502 1505 1507 1510 1513 1515 1517 1519 1521 1523 1524 1525 1526
1447 1448 1446 1445 1443 1442 1442 1442 1442 1441 1441 1440 1441 1443 1445 1448 1452 1456 1460 1464 1468 1473 1476 1479 1483 1486 1489 1493 1496 1500 1503 1506 1508 1510 1513 1516 1517 1519 1520 1522 1523 1525 1525 1526
1446 1446 1447 1444 1443 1444 1443 1442 1442 1441 1441 1441 1442 1445 1448 1450 1454 1458 1463 1468 1472 1477 1480 1484 1488 1491 1494 1498 1501 1505 1507 1510 1511 1513 1516 1518 1520 1521 1522 1523 1524 1524 1525 1526